Regional Weather Roundup
Issued by NWS Bismarck, ND

Home | Current Version | Previous Version | Text Only | Print | Product List | Glossary On
Versions: 1 2 3 4 5 6 7 8 9 10 11 12 13 14 15 16 17 18 19 20 21 22 23 24 25 26 27 28 29 30 31 32 33 34 35 36 37 38 39 40 41 42 43 44 45 46 47 48 49 50
000
ASUS43 KBIS 250510
RWRBIS

NWR BROADCAST TEXT
NATIONAL WEATHER SERVICE BISMARCK ND
1200 AM CDT SUN JUN 25 2017

NOTE: "FAIR" INDICATES FEW OR NO CLOUDS BELOW 12,000 FEET WITH NO
SIGNIFICANT WEATHER AND/OR OBSTRUCTIONS TO VISIBILITY.


CITY           SKY/WX    TMP DP  RH WIND       PRES   REMARKS
WILLISTON      CLEAR     49  38  65 CALM      30.27S
MINOT          CLEAR     49  39  68 SW8       30.25S
MINOT AFB      CLEAR     43  39  86 SW6       30.24S
BISMARCK       CLEAR     51  39  63 W5        30.29S
DICKINSON      CLEAR     44  33  65 S5        30.30S
GARRISON         N/A     44  37  76 CALM      30.27S
HETTINGER ARPT CLEAR     44  31  60 CALM      30.34R
JAMESTOWN      CLOUDY    51  48  89 NW7       30.23R
HAZEN          FAIR      39  36  87 S3        30.30F
LINTON         FAIR     N/A N/A N/A W5        30.30S
MANDAN         FAIR      46  37  71 W3        30.30R
STANLEY        FAIR      45  41  87 CALM      30.29S
TIOGA          FAIR      45  43  93 SW8       30.28F
WATFORD CITY   FAIR      43  39  87 SW5       30.28S
$$

CITY           SKY/WX    TMP DP  RH WIND       PRES   REMARKS
GRAND FORKS    CLOUDY    52  47  83 NW9       30.17S
GRAND FORKS AF CLOUDY    52  43  72 NW9       30.19S
DEVILS LAKE    CLEAR     47  44  90 NW8       30.24R
FARGO          CLOUDY    53  42  66 NW13      30.18R
GRAFTON        FAIR      48  45  87 NW9       30.20S
GWINNER        CLOUDY    50  41  71 NW7       30.22S
LANGDON        FAIR      41  41 100 NW5       30.21S
ROLLA            N/A     45  45 100 W9        30.23S
$$

CITY           SKY/WX    TMP DP  RH WIND       PRES   REMARKS
ABERDEEN       CLEAR     51  44  77 N7        30.25R
MOBRIDGE       CLEAR     47  39  74 N6        30.27R
BUFFALO          N/A     52  31  44 NE7       30.29R
RAPID CITY     CLEAR     50  31  48 N9        30.35R
GLASGOW        CLEAR     57  34  41 S5        30.27S
SIDNEY         CLEAR     54  35  48 SW5       30.29R
WOLF POINT     CLEAR     51  33  50 CALM      30.28R
GLENDIVE       CLEAR     57  33  40 SE5       30.31S
MILES CITY     CLEAR     60  27  28 N6        30.30R
BAKER          CLEAR     47  30  51 SE5       30.34R
$$

CITY           SKY/WX    TMP DP  RH WIND       PRES   REMARKS
BILLINGS       CLOUDY    63  35  35 E6        30.33R
GREAT FALLS    CLOUDY    60  40  47 E10       30.35R
REGINA         PTCLDY    50  45  81 W8        30.25S
ESTEVAN        LGT RAIN  52  46  82 E5        30.25R
$$




USA.gov is the U.S. government's official web portal to all federal, state and local government web resources and services.